This demonstration page uses our WeatherBlox Daily Observations layout. Learn more.

Left ArrowRight Arrow

Hourly Observations for July 12, 2016

Temp ( °F °C ) Dew Point ( °F °C ) Humidity (%) Winds ( mph kmh ) Pressure ( in mb ) Visibility ( mi km ) Precip ( " mm )
12:53 am 00:53 Clear 69 20.6 64 17.8 84 84 N N/A 30.00 1016 10 16 N/A
1:53 am 01:53 Clear 69 20.6 64 17.8 84 84 N N/A 29.99 1016 10 16 N/A
2:53 am 02:53 Clear 68 20 63 17.2 84 84 N N/A 29.98 1015 10 16 N/A
3:53 am 03:53 Clear 69 20.6 64 17.8 84 84 N N/A 29.98 1015 10 16 N/A
4:53 am 04:53 Clear 66 18.9 63 17.2 90 90 N N/A 29.98 1015 10 16 N/A
5:53 am 05:53 Clear 65 18.3 63 17.2 93 93 N N/A 29.99 1016 10 16 N/A
6:53 am 06:53 Sunny 66 18.9 64 17.8 93 93 N N/A 29.99 1016 9 14 N/A
7:53 am 07:53 Sunny 74 23.3 68 20 82 82 N N/A 30.01 1016 10 16 N/A
8:53 am 08:53 Sunny 77 25 70 21.1 79 79 VRB 6 9 30.02 1017 10 16 N/A
9:37 am 09:37 Mostly Cloudy 78 25.6 70 21.1 76 76 SW 6 9 30.03 1017 10 16 N/A
9:53 am 09:53 Cloudy 79 26.1 71 21.7 77 77 W 3 6 30.02 1017 10 16 N/A
10:33 am 10:33 Partly Cloudy 80 26.7 71 21.7 74 74 W 5 7 30.03 1017 10 16 N/A
10:53 am 10:53 Sunny 82 27.8 71 21.7 69 69 VRB 3 6 30.00 1016 10 16 N/A
11:50 am 11:50 Mostly Cloudy 84 29 70 21 62 62 VRB 5 7 29.97 1015 10 16 N/A
11:53 am 11:53 Mostly Cloudy 84 28.9 69 20.6 61 61 VRB 3 6 30.00 1016 10 16 N/A
12:12 pm 12:12 Partly Cloudy 86 30 70 21.1 59 59 SSW 6 9 29.97 1015 10 16 N/A
12:53 pm 12:53 Mostly Cloudy 87 30.6 70 21.1 57 57 VRB 6 9 29.98 1015 10 16 N/A
1:53 pm 13:53 Mostly Cloudy 87 30.6 70 21.1 57 57 SW 6 9 29.98 1015 10 16 N/A
2:48 pm 14:48 Mostly Cloudy with Nearby Thunderstorms 81 27 70 21 70 70 WSW 18 30 29.97 1015 10 16 N/A
2:53 pm 14:53 Mostly Cloudy with Nearby Thunderstorms 80 26.7 70 21.1 71 71 SW 16 26 29.99 1016 10 16 N/A
3:23 pm 15:23 Cloudy with Light Rain 76 24.4 72 22.2 88 88 WSW 12 19 30.00 1016 3 5 0.02 0.51
3:26 pm 15:26 Cloudy with Heavy Rain 76 24.4 73 22.8 91 91 WSW 14 22 30.00 1016 2 3 0.03 0.76
3:48 pm 15:48 Mostly Cloudy with Light Rain 79 26 73 23 84 84 SW 8 13 30.00 1016 3 5 0.08 2.03
3:53 pm 15:53 Mostly Cloudy 80 26.7 75 23.9 85 85 WSW 8 13 29.99 1016 7 11 0.08 2.03
4:53 pm 16:53 Mostly Cloudy 82 27.8 72 22.2 72 72 SW 10 17 29.94 1014 9 14 N/A
5:34 pm 17:34 Partly Cloudy 82 27.8 72 22.2 72 72 WSW 5 7 29.91 1013 9 14 N/A
5:53 pm 17:53 Mostly Sunny 83 28.3 71 21.7 67 67 S 5 7 29.93 1014 10 16 N/A
6:53 pm 18:53 Mostly Cloudy 83 28.3 71 21.7 67 67 SW 8 13 29.93 1014 10 16 N/A
7:53 pm 19:53 Sunny 81 27.2 70 21.1 69 69 SSW 8 13 29.94 1014 10 16 N/A
8:53 pm 20:53 Mostly Sunny 79 26.1 70 21.1 74 74 SSW 8 13 29.96 1015 10 16 N/A
9:53 pm 21:53 Partly Cloudy 78 25.6 70 21.1 76 76 SW 6 9 29.99 1016 10 16 N/A
10:53 pm 22:53 Clear 77 25 70 21.1 79 79 N N/A 30.00 1016 10 16 N/A
11:53 pm 23:53 Clear 75 23.9 70 21.1 84 84 SW 3 6 30.00 1016 10 16 N/A

Powered by AerisWeather